Location: Cassagne
(43.1218°N, 0.9901°E)
Time: 06:43:38
(UTC+00:00)

GEOS 3 Rocket - Pass Details

Date: 17 February 2020
Orbit: 777 x 842 km, 115.0° (Epoch: 09 April)

Event Time Altitude Azimuth Distance (km) Brightness Sun altitude
Rises 04:13:20 0° 38° (NE) 3,370 7.5 -29.5°
Reaches altitude 10° 04:15:39 10° 40° (NE) 2,441 6.7 -29.1°
Maximum altitude 04:20:59 73° 125° (SE) 877 3.7 -28.1°
Enters shadow 04:21:28 68° 166° (SSE) 902 3.7 -28.0°
